This demonstration page uses our WeatherBlox Daily Observations layout. Learn more.

Left ArrowRight Arrow

39.01783, -85.05884

Hourly Observations for February 21, 2020

Temp ( °F °C ) Dew Point ( °F °C ) Humidity (%) Winds ( mph kmh ) Pressure ( in mb ) Visibility ( mi km ) Precip ( " mm )
12:52 am 00:52 Clear 20 -6.7 11 -11.7 68 68 NNW 7 11 30.62 1037 10 16.0934 0 0
1:52 am 01:52 Clear 19 -7.2 11 -11.7 71 71 NNW 7 11 30.62 1037 10 16.0934 0 0
2:52 am 02:52 Clear 18 -7.8 11 -11.7 74 74 NNW 7 11 30.62 1037 10 16.0934 0 0
3:52 am 03:52 Clear 19 -7.2 11 -11.7 71 71 NNW 9 15 30.61 1037 10 16.0934 0 0
4:52 am 04:52 Clear 17 -8.3 11 -11.7 77 77 NNW 8 13 30.62 1037 10 16.0934 0 0
5:52 am 05:52 Clear 18 -7.8 12 -11.1 77 77 NNW 7 11 30.63 1037 10 16.0934 0 0
6:52 am 06:52 Clear 17 -8.3 11 -11.7 77 77 N 6 9 30.64 1038 10 16.0934 0 0
7:52 am 07:52 Sunny 17 -8.3 12 -11.1 80 80 NNW 3 6 30.66 1038 10 16.0934 0 0
8:52 am 08:52 Sunny 20 -6.7 13 -10.6 74 74 NNW 7 11 30.68 1039 10 16.0934 0 0
9:52 am 09:52 Sunny 23 -5 12 -11.1 63 63 Calm 30.68 1039 10 16.0934 0 0
10:52 am 10:52 Sunny 26 -3.3 11 -11.7 53 53 W 5 7 30.68 1039 10 16.0934 0 0
11:52 am 11:52 Sunny 29 -1.7 10 -12.2 45 45 W 7 11 30.67 1039 10 16.0934 0 0
12:52 pm 12:52 Sunny 32 0 5 -15 32 32 VRB 7 11 30.65 1038 10 16.0934 0 0
1:52 pm 13:52 Sunny 34 1.1 7 -13.9 32 32 Calm 30.61 1037 10 16.0934 0 0
2:52 pm 14:52 Sunny 34 1.1 5 -15 29 29 VRB 5 7 30.58 1036 10 16.0934 0 0
3:52 pm 15:52 Sunny 37 2.8 4 -15.6 25 25 W 7 11 30.56 1035 10 16.0934 0 0
4:52 pm 16:52 Sunny 37 2.8 2 -16.7 22 22 W 8 13 30.55 1034 10 16.0934 0 0
5:52 pm 17:52 Sunny 35 1.7 5 -15 28 28 WSW 5 7 30.54 1034 10 16.0934 0 0
6:52 pm 18:52 Clear 32 0 7 -13.9 35 35 SSW 6 9 30.54 1034 10 16.0934 0 0
7:52 pm 19:52 Clear 30 -1.1 7 -13.9 38 38 SW 5 7 30.53 1034 10 16.0934 0 0
8:52 pm 20:52 Clear 30 -1.1 6 -14.4 36 36 SW 5 7 30.52 1034 10 16.0934 0 0
9:52 pm 21:52 Clear 27 -2.8 7 -13.9 43 43 S 6 9 30.5 1033 10 16.0934 0 0
10:52 pm 22:52 Clear 25 -3.9 11 -11.7 55 55 S 6 9 30.49 1032 10 16.0934 0 0
11:52 pm 23:52 Clear 24 -4.4 10 -12.2 55 55 SSW 6 9 30.47 1032 10 16.0934 0 0

Powered by AerisWeather